Skip Page Navigation
NASA JPL Caltech
NASA Logo - Jet Propulsion Laboratory + View the NASA Portal
+ Near-Earth Object (NEO) Program
Search JPL
JPL Home Earth Solar System Stars & Galaxies Technology
JPL Solar System Dynamics
BODIES ORBITS EPHEMERIDES TOOLS PHYSICAL DATA DISCOVERY FAQ SITE MAP
JPL Small-Body Database Browser
Search: [ help ]  
141593 (2002 HK12)
Classification: Apollo [NEO, PHA]          SPK-ID: 2141593
Ephemeris | Orbit Diagram | Orbital Elements | Physical Parameters | Discovery Circumstances | Close-Approach Data ]

[ hide orbit diagram ]
Orbit Diagram
Note: Make sure you have Java enabled on your browser to see the applet. This applet is provided as a 3D orbit visualization tool. The applet was implemented using 2-body methods, and hence should not be used for determining accurate long-term trajectories (over several years or decades) or planetary encounter circumstances. For accurate long-term ephemerides, please instead use our Horizons system.
Orbit Viewer

Additional Notes: the orbits shown in the applet are color coded. The planets are white lines, and the asteroid/comet is a blue line. The bright white line indicates the portion of the orbit that is above the ecliptic plane, and the darker portion is below the ecliptic plane. Likewise for the asteroid/comet orbit, the light blue indicates the portion above the ecliptic plane, and the dark blue the portion below the ecliptic plane.

Orbit Viewer applet originally written and kindly provided by Osamu Ajiki (AstroArts), and further modified by Ron Baalke (JPL).


Orbital Elements at Epoch 2456400.5 (2013-Apr-18.0) TDB
Reference: JPL 92 (heliocentric ecliptic J2000)
 Element Value Uncertainty (1-sigma)   Units 
e .530032618049057 2.2175e-08  
a 2.001159064459499 4.3451e-08 AU
q .9404794863914289 3.7987e-08 AU
i 2.359530825082897 3.568e-06 deg
node 307.1369474167849 0.00010223 deg
peri 2.046445743967855 0.00010142 deg
M 279.8829880128128 4.5091e-05 deg
tp 2456630.614023140330
(2013-Dec-04.11402314)
0.00013699 JED
period 1034.000723139391
2.83
3.3677e-05
9.22e-08
d
yr
n .3481622323309241 1.1339e-08 deg/d
Q 3.061838642527568 6.6481e-08 AU
  Orbit Determination Parameters
   # obs. used (total)      562  
   # delay obs. used      0  
   # Doppler obs. used      1  
   data-arc span      7505 days (20.55 yr)  
   first obs. used      1985-06-11  
   last obs. used      2005-12-28  
   planetary ephem.      DE405  
   SB-pert. ephem.      SB405-CPV-2  
   condition code      0  
   fit RMS      .54713  
   data source      ORB  
   producer      Otto Matic  
   solution date      2013-Apr-29 15:39:02  

Additional Information
 Earth MOID = .0244518 AU 
 T_jup = 3.651 
[ show covariance matrix ]

Ephemeris | Orbit Diagram | Orbital Elements | Physical Parameters | Discovery Circumstances | Close-Approach Data ]

Physical Parameter Table
Parameter Symbol Value Units Sigma Reference Notes
absolute magnitude H 17.955 mag .73207 92 autocmod 2.5c
rotation period rot_per 12.690 h n/a Asteroid Lightcurve DataBase (Rev. 2013-May-01) Incomplete or inconclusive result.
Published Reference List:
[Pravec, P.; Wolf, M.; Sarounova, L. (2002) http://www.asu.cas.cz/~ppravec/neo.htm]
[Wolters, S.D.; Green, S.F.; McBride, N.; Davies, J.K. (2005) Icarus 175, 92-110.]

141593 (2002 HK12)          Discovered 2002-Apr-30 by NEAT at Palomar (644)
Reference: 20061205/Numbers.arcLast Updated: 2006-12-13

[ show close-approach data ]
Ephemeris | Orbit Diagram | Orbital Elements | Physical Parameters | Discovery Circumstances | Close-Approach Data ]
ABOUT SSD CREDITS/AWARDS PRIVACY/COPYRIGHT GLOSSARY LINKS
FirstGov 2013-May-24 19:11 UT
(server date/time)  
NASA Home Page
Site Manager:   Donald K. Yeomans
Webmaster  Alan B. Chamberlin